Weather History for Livermore, CA

Change the Weather History Date:

Thursday, September 20, 2012

  Actual Average Record
Temperature  
Mean Temperature 66 °F 69 °F  
Max Temperature 81 °F 84 °F 103 °F (1936)
Min Temperature 50 °F 55 °F 40 °F (1968)
Degree Days  
Heating Degree Days 0 1  
Month to date heating degree days 1 3  
Since 1 July heating degree days 5 10  
Cooling Degree Days 1 5  
Month to date cooling degree days 106 122  
Year to date cooling degree days 803 747  
Growing Degree Days 16 (Base 50)    
Moisture  
Dew Point 48 °F    
Average Humidity 59    
Maximum Humidity 89    
Minimum Humidity 28    
Precipitation  
Precipitation 0.00 in 0.01 in 0.04 in (2005)
Month to date precipitation 0.00 0.08  
Year to date precipitation 7.06 9.99  
Since 1 July precipitation 0.00 0.09  
Sea Level Pressure  
Sea Level Pressure 30.02 in    
Wind  
Wind Speed 5 mph (WNW)    
Max Wind Speed 15 mph    
Max Gust Speed 20 mph    
Visibility 10 miles    
Events      
T = Trace of Precipitation, MM = Missing Value Source: NWS Daily Summary

Daily Weather History Graph

Daily Weather History Graph

Search for Another Location

Airport:

Trip Planner

Search our weather history database for the weather conditions in past years. The results will help you decide how hot, cold, wet, or windy it might be!

Date:

Astronomy

Sep. 20, 2012 Rise Set
Actual Time 6:53 AM PDT 7:06 PM PDT
Civil Twilight 6:27 AM PDT 7:32 PM PDT
Nautical Twilight 5:57 AM PDT 8:03 PM PDT
Astronomical Twilight 5:25 AM PDT 8:34 PM PDT
Moon 12:11 PM PDT (9/20) 10:20 PM PDT (9/20)
Length of Visible Light 13h 04m
Length of Day
12h 12m
Waxing Crescent, 28% of the Moon is Illuminated
Sep 20
Waxing Crescent
Sep 22
First Quarter
Sep 29
Full
Oct 8
Last Quarter
Oct 15
New

Hourly Weather History & Observations

Time (PDT) Temp. Dew Point Humidity Pressure Visibility Wind Dir Wind Speed Gust Speed Precip Events Conditions
12:53 AM 53.1 °F 48.9 °F 86% 30.07 in 10.0 mi West 5.8 mph - N/A   Clear
1:53 AM 53.1 °F 48.9 °F 86% 30.07 in 10.0 mi Calm Calm - N/A   Clear
2:53 AM 53.1 °F 48.0 °F 83% 30.06 in 10.0 mi Calm Calm - N/A   Clear
3:53 AM 52.0 °F 48.0 °F 86% 30.05 in 10.0 mi Calm Calm - N/A   Clear
4:53 AM 52.0 °F 48.0 °F 86% 30.05 in 10.0 mi Calm Calm - N/A   Clear
6:53 AM 51.1 °F 46.9 °F 86% 30.06 in 10.0 mi Calm Calm - N/A   Clear
6:55 AM 51.8 °F 46.4 °F 82% 30.06 in 10.0 mi Calm Calm - N/A   Partly Cloudy
7:53 AM 54.0 °F 48.9 °F 83% 30.06 in 9.0 mi Calm Calm - N/A   Partly Cloudy
8:13 AM 55.4 °F 50.0 °F 82% 30.07 in 9.0 mi Calm Calm - N/A   Mostly Cloudy
8:53 AM 55.0 °F 48.9 °F 80% 30.07 in 10.0 mi Calm Calm - N/A   Scattered Clouds
9:53 AM 59.0 °F 50.0 °F 72% 30.07 in 10.0 mi Calm Calm - N/A   Clear
10:53 AM 64.9 °F 50.0 °F 58% 30.06 in 10.0 mi Variable 3.5 mph - N/A   Clear
11:53 AM 70.0 °F 48.9 °F 47% 30.04 in 10.0 mi Variable 3.5 mph - N/A   Clear
12:53 PM 75.0 °F 50.0 °F 41% 30.02 in 10.0 mi Variable 5.8 mph - N/A   Clear
1:53 PM 78.1 °F 45.0 °F 31% 30.00 in 10.0 mi WNW 8.1 mph - N/A   Clear
2:53 PM 80.1 °F 45.0 °F 29% 29.98 in 10.0 mi WNW 9.2 mph - N/A   Clear
3:53 PM 78.1 °F 45.0 °F 31% 29.97 in 10.0 mi WNW 13.8 mph - N/A   Clear
4:53 PM 77.0 °F 45.0 °F 32% 29.96 in 10.0 mi West 9.2 mph - N/A   Clear
5:53 PM 75.0 °F 46.0 °F 36% 29.95 in 10.0 mi WNW 11.5 mph - N/A   Clear
6:53 PM 68.0 °F 48.9 °F 50% 29.96 in 10.0 mi NW 10.4 mph - N/A   Clear
7:53 PM 64.0 °F 48.0 °F 56% 29.98 in 10.0 mi NW 6.9 mph - N/A   Clear
8:53 PM 61.0 °F 48.9 °F 64% 29.99 in 10.0 mi NW 6.9 mph - N/A   Clear
9:53 PM 59.0 °F 48.9 °F 69% 29.99 in 10.0 mi WNW 6.9 mph - N/A   Clear
10:53 PM 57.9 °F 46.9 °F 67% 29.99 in 10.0 mi WNW 6.9 mph - N/A   Clear
11:53 PM 57.0 °F 48.0 °F 72% 29.99 in 10.0 mi NNW 3.5 mph - N/A   Clear